Year,Month,Day,Hour,Minute,Value (Times are PST for insolation in W/m^2)
2016,02,02,00,00,0.00
2016,02,02,00,01,0.00
2016,02,02,00,02,0.00
2016,02,02,00,03,0.00
2016,02,02,00,04,0.00
2016,02,02,00,05,0.00
2016,02,02,00,06,0.00
2016,02,02,00,07,0.00
2016,02,02,00,08,0.00
2016,02,02,00,09,0.00
2016,02,02,00,10,0.00
2016,02,02,00,11,0.00
2016,02,02,00,12,0.00
2016,02,02,00,13,0.00
2016,02,02,00,14,0.00
2016,02,02,00,15,0.00
2016,02,02,00,16,0.00
2016,02,02,00,17,0.00
2016,02,02,00,18,0.00
2016,02,02,00,19,0.00
2016,02,02,00,20,0.00
2016,02,02,00,21,0.00
2016,02,02,00,22,0.00
2016,02,02,00,23,0.00
2016,02,02,00,24,0.00
2016,02,02,00,25,0.00
2016,02,02,00,26,0.00
2016,02,02,00,27,0.00
2016,02,02,00,28,0.00
2016,02,02,00,29,0.00
2016,02,02,00,30,0.00
2016,02,02,00,31,0.00
2016,02,02,00,32,0.00
2016,02,02,00,33,0.00
2016,02,02,00,34,0.00
2016,02,02,00,35,0.00
2016,02,02,00,36,0.00
2016,02,02,00,37,0.00
2016,02,02,00,38,0.00
2016,02,02,00,39,0.00
2016,02,02,00,40,0.00
2016,02,02,00,41,0.00
2016,02,02,00,42,0.00
2016,02,02,00,43,0.00
2016,02,02,00,44,0.00
2016,02,02,00,45,0.00
2016,02,02,00,46,0.00
2016,02,02,00,47,0.00
2016,02,02,00,48,0.00
2016,02,02,00,49,0.00
2016,02,02,00,50,0.00
2016,02,02,00,51,0.00
2016,02,02,00,52,0.00
2016,02,02,00,53,0.00
2016,02,02,00,54,0.00
2016,02,02,00,55,0.00
2016,02,02,00,56,0.00
2016,02,02,00,57,0.00
2016,02,02,00,58,0.00
2016,02,02,00,59,0.00
2016,02,02,01,00,0.00
2016,02,02,01,01,0.00
2016,02,02,01,02,0.00
2016,02,02,01,03,0.00
2016,02,02,01,04,0.00
2016,02,02,01,05,0.00
2016,02,02,01,06,0.00
2016,02,02,01,07,0.00
2016,02,02,01,08,0.00
2016,02,02,01,09,0.00
2016,02,02,01,10,0.00
2016,02,02,01,11,0.00
2016,02,02,01,12,0.00
2016,02,02,01,13,0.00
2016,02,02,01,14,0.00
2016,02,02,01,15,0.00
2016,02,02,01,16,0.00
2016,02,02,01,17,0.00
2016,02,02,01,18,0.00
2016,02,02,01,19,0.00
2016,02,02,01,20,0.00
2016,02,02,01,21,0.00
2016,02,02,01,22,0.00
2016,02,02,01,23,0.00
2016,02,02,01,24,0.00
2016,02,02,01,25,0.00
2016,02,02,01,26,0.00
2016,02,02,01,27,0.00
2016,02,02,01,28,0.00
2016,02,02,01,29,0.00
2016,02,02,01,30,0.00
2016,02,02,01,31,0.00
2016,02,02,01,32,0.00
2016,02,02,01,33,0.00
2016,02,02,01,34,0.00
2016,02,02,01,35,0.00
2016,02,02,01,36,0.00
2016,02,02,01,37,0.00
2016,02,02,01,38,0.00
2016,02,02,01,39,0.00
2016,02,02,01,40,0.00
2016,02,02,01,41,0.00
2016,02,02,01,42,0.00
2016,02,02,01,43,0.00
2016,02,02,01,44,0.00
2016,02,02,01,45,0.00
2016,02,02,01,46,0.00
2016,02,02,01,47,0.00
2016,02,02,01,48,0.00
2016,02,02,01,49,0.00
2016,02,02,01,50,0.00
2016,02,02,01,51,0.00
2016,02,02,01,52,0.00
2016,02,02,01,53,0.00
2016,02,02,01,54,0.00
2016,02,02,01,55,0.00
2016,02,02,01,56,0.00
2016,02,02,01,57,0.00
2016,02,02,01,58,0.00
2016,02,02,01,59,0.00
2016,02,02,02,00,0.00
2016,02,02,02,01,0.00
2016,02,02,02,02,0.00
2016,02,02,02,03,0.00
2016,02,02,02,04,0.00
2016,02,02,02,05,0.00
2016,02,02,02,06,0.00
2016,02,02,02,07,0.00
2016,02,02,02,08,0.00
2016,02,02,02,09,0.00
2016,02,02,02,10,0.00
2016,02,02,02,11,0.00
2016,02,02,02,12,0.00
2016,02,02,02,13,0.00
2016,02,02,02,14,0.00
2016,02,02,02,15,0.00
2016,02,02,02,16,0.00
2016,02,02,02,17,0.00
2016,02,02,02,18,0.00
2016,02,02,02,19,0.00
2016,02,02,02,20,0.00
2016,02,02,02,21,0.00
2016,02,02,02,22,0.00
2016,02,02,02,23,0.00
2016,02,02,02,24,0.00
2016,02,02,02,25,0.00
2016,02,02,02,26,0.00
2016,02,02,02,27,0.00
2016,02,02,02,28,0.00
2016,02,02,02,29,0.00
2016,02,02,02,30,0.00
2016,02,02,02,31,0.00
2016,02,02,02,32,0.00
2016,02,02,02,33,0.00
2016,02,02,02,34,0.00
2016,02,02,02,35,0.00
2016,02,02,02,36,0.00
2016,02,02,02,37,0.00
2016,02,02,02,38,0.00
2016,02,02,02,39,0.00
2016,02,02,02,40,0.00
2016,02,02,02,41,0.00
2016,02,02,02,42,0.00
2016,02,02,02,43,0.00
2016,02,02,02,44,0.00
2016,02,02,02,45,0.00
2016,02,02,02,46,0.00
2016,02,02,02,47,0.00
2016,02,02,02,48,0.00
2016,02,02,02,49,0.00
2016,02,02,02,50,0.00
2016,02,02,02,51,0.00
2016,02,02,02,52,0.00
2016,02,02,02,53,0.00
2016,02,02,02,54,0.00
2016,02,02,02,55,0.00
2016,02,02,02,56,0.00
2016,02,02,02,57,0.00
2016,02,02,02,58,0.00
2016,02,02,02,59,0.00
2016,02,02,03,00,0.00
2016,02,02,03,01,0.00
2016,02,02,03,02,0.00
2016,02,02,03,03,0.00
2016,02,02,03,04,0.00
2016,02,02,03,05,0.00
2016,02,02,03,06,0.00
2016,02,02,03,07,0.00
2016,02,02,03,08,0.00
2016,02,02,03,09,0.00
2016,02,02,03,10,0.00
2016,02,02,03,11,0.00
2016,02,02,03,12,0.00
2016,02,02,03,13,0.00
2016,02,02,03,14,0.00
2016,02,02,03,15,0.00
2016,02,02,03,16,0.00
2016,02,02,03,17,0.00
2016,02,02,03,18,0.00
2016,02,02,03,19,0.00
2016,02,02,03,20,0.00
2016,02,02,03,21,0.00
2016,02,02,03,22,0.00
2016,02,02,03,23,0.00
2016,02,02,03,24,0.00
2016,02,02,03,25,0.00
2016,02,02,03,26,0.00
2016,02,02,03,27,0.00
2016,02,02,03,28,0.00
2016,02,02,03,29,0.00
2016,02,02,03,30,0.00
2016,02,02,03,31,0.00
2016,02,02,03,32,0.00
2016,02,02,03,33,0.00
2016,02,02,03,34,0.00
2016,02,02,03,35,0.00
2016,02,02,03,36,0.00
2016,02,02,03,37,0.00
2016,02,02,03,38,0.00
2016,02,02,03,39,0.00
2016,02,02,03,40,0.00
2016,02,02,03,41,0.00
2016,02,02,03,42,0.00
2016,02,02,03,43,0.00
2016,02,02,03,44,0.00
2016,02,02,03,45,0.00
2016,02,02,03,49,0.00
2016,02,02,03,50,0.00
2016,02,02,03,51,0.00
2016,02,02,03,52,0.00
2016,02,02,03,53,0.00
2016,02,02,03,54,0.00
2016,02,02,03,55,0.00
2016,02,02,03,56,0.00
2016,02,02,03,57,0.00
2016,02,02,03,58,0.00
2016,02,02,03,59,0.00
2016,02,02,04,00,0.00
2016,02,02,04,01,0.00
2016,02,02,04,02,0.00
2016,02,02,04,03,0.00
2016,02,02,04,04,0.00
2016,02,02,04,05,0.00
2016,02,02,04,06,0.00
2016,02,02,04,07,0.00
2016,02,02,04,08,0.00
2016,02,02,04,09,0.00
2016,02,02,04,10,0.00
2016,02,02,04,11,0.00
2016,02,02,04,12,0.00
2016,02,02,04,13,0.00
2016,02,02,04,14,0.00
2016,02,02,04,15,0.00
2016,02,02,04,16,0.00
2016,02,02,04,17,0.00
2016,02,02,04,18,0.00
2016,02,02,04,19,0.00
2016,02,02,04,20,0.00
2016,02,02,04,21,0.00
2016,02,02,04,22,0.00
2016,02,02,04,23,0.00
2016,02,02,04,24,0.00
2016,02,02,04,25,0.00
2016,02,02,04,26,0.00
2016,02,02,04,27,0.00
2016,02,02,04,28,0.00
2016,02,02,04,29,0.00
2016,02,02,04,30,0.00
2016,02,02,04,31,0.00
2016,02,02,04,32,0.00
2016,02,02,04,33,0.00
2016,02,02,04,34,0.00
2016,02,02,04,35,0.00
2016,02,02,04,36,0.00
2016,02,02,04,37,0.00
2016,02,02,04,38,0.00
2016,02,02,04,39,0.00
2016,02,02,04,40,0.00
2016,02,02,04,41,0.00
2016,02,02,04,42,0.00
2016,02,02,04,43,0.00
2016,02,02,04,44,0.00
2016,02,02,04,45,0.00
2016,02,02,04,46,0.00
2016,02,02,04,47,0.00
2016,02,02,04,48,0.00
2016,02,02,04,49,0.00
2016,02,02,04,50,0.00
2016,02,02,04,51,0.00
2016,02,02,04,52,0.00
2016,02,02,04,53,0.00
2016,02,02,04,54,0.00
2016,02,02,04,55,0.00
2016,02,02,04,56,0.00
2016,02,02,04,57,0.00
2016,02,02,04,58,0.00
2016,02,02,04,59,0.00
2016,02,02,05,00,0.00
2016,02,02,05,01,0.00
2016,02,02,05,02,0.00
2016,02,02,05,03,0.00
2016,02,02,05,04,0.00
2016,02,02,05,05,0.00
2016,02,02,05,06,0.00
2016,02,02,05,07,0.00
2016,02,02,05,08,0.00
2016,02,02,05,09,0.00
2016,02,02,05,10,0.00
2016,02,02,05,11,0.00
2016,02,02,05,12,0.00
2016,02,02,05,13,0.00
2016,02,02,05,14,0.00
2016,02,02,05,15,0.00
2016,02,02,05,16,0.00
2016,02,02,05,17,0.00
2016,02,02,05,18,0.00
2016,02,02,05,19,0.00
2016,02,02,05,20,0.00
2016,02,02,05,21,0.00
2016,02,02,05,22,0.00
2016,02,02,05,23,0.00
2016,02,02,05,24,0.00
2016,02,02,05,25,0.00
2016,02,02,05,26,0.00
2016,02,02,05,27,0.00
2016,02,02,05,28,0.00
2016,02,02,05,29,0.00
2016,02,02,05,30,0.00
2016,02,02,05,31,0.00
2016,02,02,05,32,0.00
2016,02,02,05,33,0.00
2016,02,02,05,34,0.00
2016,02,02,05,35,0.00
2016,02,02,05,36,0.00
2016,02,02,05,37,0.00
2016,02,02,05,38,0.00
2016,02,02,05,39,0.00
2016,02,02,05,40,0.00
2016,02,02,05,41,0.00
2016,02,02,05,42,0.00
2016,02,02,05,43,0.00
2016,02,02,05,44,0.00
2016,02,02,05,45,0.00
2016,02,02,05,46,0.00
2016,02,02,05,47,0.00
2016,02,02,05,48,0.00
2016,02,02,05,49,0.00
2016,02,02,05,50,0.00
2016,02,02,05,51,0.00
2016,02,02,05,52,0.00
2016,02,02,05,53,0.00
2016,02,02,05,54,0.00
2016,02,02,05,55,0.00
2016,02,02,05,56,0.00
2016,02,02,05,57,0.00
2016,02,02,05,58,0.00
2016,02,02,05,59,0.00
2016,02,02,06,00,0.00
2016,02,02,06,01,0.00
2016,02,02,06,02,0.00
2016,02,02,06,03,0.00
2016,02,02,06,04,0.00
2016,02,02,06,05,0.00
2016,02,02,06,06,0.00
2016,02,02,06,07,0.00
2016,02,02,06,08,0.00
2016,02,02,06,09,0.00
2016,02,02,06,10,0.00
2016,02,02,06,11,0.00
2016,02,02,06,12,0.00
2016,02,02,06,13,0.00
2016,02,02,06,14,0.00
2016,02,02,06,15,0.00
2016,02,02,06,16,0.00
2016,02,02,06,17,0.00
2016,02,02,06,18,0.00
2016,02,02,06,19,0.00
2016,02,02,06,20,0.00
2016,02,02,06,21,0.00
2016,02,02,06,22,0.00
2016,02,02,06,23,0.00
2016,02,02,06,24,0.00
2016,02,02,06,25,0.00
2016,02,02,06,26,0.00
2016,02,02,06,27,0.00
2016,02,02,06,28,0.00
2016,02,02,06,29,0.00
2016,02,02,06,30,0.00
2016,02,02,06,31,0.00
2016,02,02,06,32,0.00
2016,02,02,06,33,0.00
2016,02,02,06,34,0.00
2016,02,02,06,35,0.00
2016,02,02,06,36,0.00
2016,02,02,06,37,0.00
2016,02,02,06,38,0.00
2016,02,02,06,39,0.00
2016,02,02,06,40,0.00
2016,02,02,06,41,0.00
2016,02,02,06,42,0.00
2016,02,02,06,43,0.00
2016,02,02,06,44,0.00
2016,02,02,06,45,0.00
2016,02,02,06,46,0.00
2016,02,02,06,47,0.00
2016,02,02,06,48,0.00
2016,02,02,06,49,0.00
2016,02,02,06,50,0.00
2016,02,02,06,51,0.00
2016,02,02,06,52,0.00
2016,02,02,06,53,0.00
2016,02,02,06,54,0.00
2016,02,02,06,55,0.00
2016,02,02,06,56,0.00
2016,02,02,06,57,0.00
2016,02,02,06,58,0.00
2016,02,02,06,59,0.00
2016,02,02,07,00,0.00
2016,02,02,07,01,0.00
2016,02,02,07,02,0.00
2016,02,02,07,03,0.00
2016,02,02,07,04,0.00
2016,02,02,07,05,0.00
2016,02,02,07,06,0.00
2016,02,02,07,07,0.00
2016,02,02,07,08,0.00
2016,02,02,07,09,0.00
2016,02,02,07,10,0.00
2016,02,02,07,11,0.00
2016,02,02,07,12,0.00
2016,02,02,07,13,0.00
2016,02,02,07,14,0.00
2016,02,02,07,15,0.00
2016,02,02,07,16,0.00
2016,02,02,07,17,0.00
2016,02,02,07,18,0.00
2016,02,02,07,19,0.00
2016,02,02,07,20,0.00
2016,02,02,07,21,0.00
2016,02,02,07,22,0.00
2016,02,02,07,23,0.00
2016,02,02,07,24,0.00
2016,02,02,07,25,0.00
2016,02,02,07,26,0.00
2016,02,02,07,27,0.00
2016,02,02,07,28,0.00
2016,02,02,07,29,0.00
2016,02,02,07,30,0.00
2016,02,02,07,31,0.00
2016,02,02,07,32,0.00
2016,02,02,07,33,0.00
2016,02,02,07,34,0.00
2016,02,02,07,35,0.00
2016,02,02,07,36,0.00
2016,02,02,07,37,0.00
2016,02,02,07,38,0.00
2016,02,02,07,39,0.00
2016,02,02,07,40,0.00
2016,02,02,07,41,0.00
2016,02,02,07,42,0.00
2016,02,02,07,43,0.00
2016,02,02,07,44,0.00
2016,02,02,07,45,0.00
2016,02,02,07,46,0.00
2016,02,02,07,47,0.00
2016,02,02,07,48,0.00
2016,02,02,07,49,0.00
2016,02,02,07,50,0.00
2016,02,02,07,51,0.00
2016,02,02,07,52,0.00
2016,02,02,07,53,0.00
2016,02,02,07,54,0.00
2016,02,02,07,55,0.00
2016,02,02,07,56,0.00
2016,02,02,07,57,0.00
2016,02,02,07,58,0.00
2016,02,02,07,59,0.00
2016,02,02,08,00,0.00
2016,02,02,08,01,0.00
2016,02,02,08,02,0.00
2016,02,02,08,03,0.00
2016,02,02,08,04,0.00
2016,02,02,08,05,0.00
2016,02,02,08,06,0.00
2016,02,02,08,07,0.00
2016,02,02,08,08,0.00
2016,02,02,08,09,0.00
2016,02,02,08,10,0.00
2016,02,02,08,11,0.00
2016,02,02,08,12,0.00
2016,02,02,08,13,0.00
2016,02,02,08,14,0.00
2016,02,02,08,15,0.00
2016,02,02,08,16,0.00
2016,02,02,08,17,0.00
2016,02,02,08,18,0.00
2016,02,02,08,19,0.00
2016,02,02,08,20,0.00
2016,02,02,08,21,0.00
2016,02,02,08,22,0.00
2016,02,02,08,23,0.00
2016,02,02,08,24,0.00
2016,02,02,08,25,0.00
2016,02,02,08,26,0.00
2016,02,02,08,27,0.00
2016,02,02,08,28,0.00
2016,02,02,08,29,0.00
2016,02,02,08,30,0.00
2016,02,02,08,31,0.00
2016,02,02,08,32,0.00
2016,02,02,08,33,0.00
2016,02,02,08,34,0.00
2016,02,02,08,35,0.00
2016,02,02,08,36,0.00
2016,02,02,08,37,0.00
2016,02,02,08,38,0.00
2016,02,02,08,39,0.00
2016,02,02,08,40,0.00
2016,02,02,08,41,0.00
2016,02,02,08,42,0.00
2016,02,02,08,43,0.00
2016,02,02,08,44,0.00
2016,02,02,08,45,0.20
2016,02,02,08,46,5.00
2016,02,02,08,47,5.00
2016,02,02,08,48,5.00
2016,02,02,08,49,5.00
2016,02,02,08,50,5.00
2016,02,02,08,51,5.00
2016,02,02,08,52,5.00
2016,02,02,08,53,5.10
2016,02,02,08,54,7.00
2016,02,02,08,55,7.00
2016,02,02,08,56,7.10
2016,02,02,08,57,9.00
2016,02,02,08,58,9.00
2016,02,02,08,59,9.00
2016,02,02,09,00,9.00
2016,02,02,09,01,9.10
2016,02,02,09,02,11.10
2016,02,02,09,03,14.20
2016,02,02,09,04,18.00
2016,02,02,09,05,19.00
2016,02,02,09,06,19.30
2016,02,02,09,07,25.00
2016,02,02,09,08,26.10
2016,02,02,09,09,27.90
2016,02,02,09,10,25.90
2016,02,02,09,11,22.80
2016,02,02,09,12,18.90
2016,02,02,09,13,15.90
2016,02,02,09,14,14.00
2016,02,02,09,15,14.10
2016,02,02,09,16,16.00
2016,02,02,09,17,16.10
2016,02,02,09,18,18.00
2016,02,02,09,19,18.00
2016,02,02,09,20,18.00
2016,02,02,09,21,19.10
2016,02,02,09,22,21.10
2016,02,02,09,23,22.90
2016,02,02,09,24,21.00
2016,02,02,09,25,20.90
2016,02,02,09,26,18.90
2016,02,02,09,27,18.00
2016,02,02,09,28,18.10
2016,02,02,09,29,21.00
2016,02,02,09,30,21.00
2016,02,02,09,31,21.10
2016,02,02,09,32,23.10
2016,02,02,09,33,25.10
2016,02,02,09,34,28.10
2016,02,02,09,35,30.00
2016,02,02,09,36,30.00
2016,02,02,09,37,30.00
2016,02,02,09,38,30.00
2016,02,02,09,39,30.10
2016,02,02,09,40,32.00
2016,02,02,09,41,32.00
2016,02,02,09,42,32.00
2016,02,02,09,43,32.00
2016,02,02,09,44,33.00
2016,02,02,09,45,33.10
2016,02,02,09,46,35.00
2016,02,02,09,47,35.10
2016,02,02,09,48,37.00
2016,02,02,09,49,37.10
2016,02,02,09,50,39.00
2016,02,02,09,51,39.00
2016,02,02,09,52,40.00
2016,02,02,09,53,40.10
2016,02,02,09,54,42.10
2016,02,02,09,55,44.00
2016,02,02,09,56,44.00
2016,02,02,09,57,44.00
2016,02,02,09,58,44.00
2016,02,02,09,59,44.00
2016,02,02,10,00,44.20
2016,02,02,10,01,49.20
2016,02,02,10,02,54.20
2016,02,02,10,03,58.00
2016,02,02,10,04,58.00
2016,02,02,10,05,57.90
2016,02,02,10,06,55.90
2016,02,02,10,07,54.00
2016,02,02,10,08,53.00
2016,02,02,10,09,52.90
2016,02,02,10,10,51.00
2016,02,02,10,11,48.90
2016,02,02,10,12,47.00
2016,02,02,10,13,46.00
2016,02,02,10,14,46.00
2016,02,02,10,15,47.00
2016,02,02,10,16,47.10
2016,02,02,10,17,49.00
2016,02,02,10,18,49.10
2016,02,02,10,19,51.00
2016,02,02,10,20,51.00
2016,02,02,10,21,51.20
2016,02,02,10,22,54.20
2016,02,02,10,23,58.20
2016,02,02,10,24,62.00
2016,02,02,10,25,63.20
2016,02,02,10,26,67.20
2016,02,02,10,27,72.20
2016,02,02,10,28,77.10
2016,02,02,10,29,79.00
2016,02,02,10,30,79.00
2016,02,02,10,31,79.00
2016,02,02,10,32,79.00
2016,02,02,10,33,79.30
2016,02,02,10,34,86.10
2016,02,02,10,35,88.00
2016,02,02,10,36,87.90
2016,02,02,10,37,86.10
2016,02,02,10,38,88.10
2016,02,02,10,39,90.10
2016,02,02,10,40,91.20
2016,02,02,10,41,95.10
2016,02,02,10,42,97.10
2016,02,02,10,43,98.10
2016,02,02,10,44,100.20
2016,02,02,10,45,105.40
2016,02,02,10,46,112.90
2016,02,02,10,47,110.80
2016,02,02,10,48,106.80
2016,02,02,10,49,103.70
2016,02,02,10,50,96.80
2016,02,02,10,51,93.10
2016,02,02,10,52,95.30
2016,02,02,10,53,102.40
2016,02,02,10,54,111.20
2016,02,02,10,55,114.10
2016,02,02,10,56,116.00
2016,02,02,10,57,116.00
2016,02,02,10,58,115.80
2016,02,02,10,59,110.90
2016,02,02,11,00,109.00
2016,02,02,11,01,109.10
2016,02,02,11,02,111.20
2016,02,02,11,03,114.00
2016,02,02,11,04,113.90
2016,02,02,11,05,113.10
2016,02,02,11,06,114.30
2016,02,02,11,07,120.20
2016,02,02,11,08,125.20
2016,02,02,11,09,128.30
2016,02,02,11,10,134.00
2016,02,02,11,11,133.70
2016,02,02,11,12,127.80
2016,02,02,11,13,124.80
2016,02,02,11,14,119.80
2016,02,02,11,15,116.10
2016,02,02,11,16,118.20
2016,02,02,11,17,121.10
2016,02,02,11,18,123.00
2016,02,02,11,19,122.70
2016,02,02,11,20,115.60
2016,02,02,11,21,106.80
2016,02,02,11,22,104.10
2016,02,02,11,23,105.20
2016,02,02,11,24,109.00
2016,02,02,11,25,111.10
2016,02,02,11,26,113.10
2016,02,02,11,27,114.40
2016,02,02,11,28,123.60
2016,02,02,11,29,134.30
2016,02,02,11,30,139.10
2016,02,02,11,31,142.20
2016,02,02,11,32,146.00
2016,02,02,11,33,145.80
2016,02,02,11,34,141.90
2016,02,02,11,35,138.90
2016,02,02,11,36,136.90
2016,02,02,11,37,135.00
2016,02,02,11,38,129.60
2016,02,02,11,39,120.70
2016,02,02,11,40,113.80
2016,02,02,11,41,111.00
2016,02,02,11,42,111.20
2016,02,02,11,43,116.40
2016,02,02,11,44,125.20
2016,02,02,11,45,130.10
2016,02,02,11,46,131.90
2016,02,02,11,47,130.10
2016,02,02,11,48,132.00
2016,02,02,11,49,132.10
2016,02,02,11,50,134.50
2016,02,02,11,51,144.70
2016,02,02,11,52,158.20
2016,02,02,11,53,162.90
2016,02,02,11,54,162.10
2016,02,02,11,55,165.00
2016,02,02,11,56,165.40
2016,02,02,11,57,174.20
2016,02,02,11,58,178.00
2016,02,02,11,59,173.90
2016,02,02,12,00,170.80
2016,02,02,12,01,166.80
2016,02,02,12,02,162.90
2016,02,02,12,03,161.90
2016,02,02,12,04,160.00
2016,02,02,12,05,155.90
2016,02,02,12,06,153.00
2016,02,02,12,07,153.00
2016,02,02,12,08,153.00
2016,02,02,12,09,153.00
2016,02,02,12,10,152.80
2016,02,02,12,11,148.90
2016,02,02,12,12,147.80
2016,02,02,12,13,144.00
2016,02,02,12,14,143.60
2016,02,02,12,15,136.80
2016,02,02,12,16,131.80
2016,02,02,12,17,127.00
2016,02,02,12,18,119.70
2016,02,02,12,19,112.70
2016,02,02,12,20,106.80
2016,02,02,12,21,103.90
2016,02,02,12,22,101.80
2016,02,02,12,23,97.80
2016,02,02,12,24,94.90
2016,02,02,12,25,92.80
2016,02,02,12,26,90.00
2016,02,02,12,27,86.00
2016,02,02,12,28,86.00
2016,02,02,12,29,86.00
2016,02,02,12,30,88.00
2016,02,02,12,31,87.90
2016,02,02,12,32,85.80
2016,02,02,12,33,82.90
2016,02,02,12,34,81.00
2016,02,02,12,35,80.90
2016,02,02,12,36,78.90
2016,02,02,12,37,77.00
2016,02,02,12,38,75.90
2016,02,02,12,39,74.00
2016,02,02,12,40,74.00
2016,02,02,12,41,76.10
2016,02,02,12,42,77.00
2016,02,02,12,43,77.00
2016,02,02,12,44,82.90
2016,02,02,12,45,80.80
2016,02,02,12,46,76.90
2016,02,02,12,47,76.00
2016,02,02,12,48,76.10
2016,02,02,12,49,77.00
2016,02,02,12,50,77.30
2016,02,02,12,51,84.10
2016,02,02,12,52,86.00
2016,02,02,12,53,86.20
2016,02,02,12,54,90.20
2016,02,02,12,55,93.30
2016,02,02,12,56,98.10
2016,02,02,12,57,100.00
2016,02,02,12,58,100.00
2016,02,02,12,59,96.90
2016,02,02,13,00,95.00
2016,02,02,13,01,91.00
2016,02,02,13,02,91.30
2016,02,02,13,03,97.00
2016,02,02,13,04,104.00
2016,02,02,13,05,111.20
2016,02,02,13,06,114.00
2016,02,02,13,07,113.90
2016,02,02,13,08,113.00
2016,02,02,13,09,113.20
2016,02,02,13,10,118.20
2016,02,02,13,11,123.00
2016,02,02,13,12,128.20
2016,02,02,13,13,132.00
2016,02,02,13,14,132.30
2016,02,02,13,15,137.40
2016,02,02,13,16,146.00
2016,02,02,13,17,147.20
2016,02,02,13,18,171.00
2016,02,02,13,19,186.60
2016,02,02,13,20,199.20
2016,02,02,13,21,204.00
2016,02,02,13,22,203.60
2016,02,02,13,23,194.50
2016,02,02,13,24,184.60
2016,02,02,13,25,177.70
2016,02,02,13,26,172.00
2016,02,02,13,27,162.40
2016,02,02,13,28,150.60
2016,02,02,13,29,141.90
2016,02,02,13,30,141.00
2016,02,02,13,31,141.00
2016,02,02,13,32,140.80
2016,02,02,13,33,136.90
2016,02,02,13,34,133.70
2016,02,02,13,35,127.80
2016,02,02,13,36,124.80
2016,02,02,13,37,119.70
2016,02,02,13,38,112.60
2016,02,02,13,39,103.60
2016,02,02,13,40,95.00
2016,02,02,13,41,94.20
2016,02,02,13,42,78.80
2016,02,02,13,43,76.00
2016,02,02,13,44,75.90
2016,02,02,13,45,73.90
2016,02,02,13,46,71.90
2016,02,02,13,47,69.90
2016,02,02,13,48,69.00
2016,02,02,13,49,69.90
2016,02,02,13,50,68.90
2016,02,02,13,51,66.90
2016,02,02,13,52,64.80
2016,02,02,13,53,59.80
2016,02,02,13,54,55.90
2016,02,02,13,55,54.00
2016,02,02,13,56,54.00
2016,02,02,13,57,56.10
2016,02,02,13,58,58.00
2016,02,02,13,59,58.20
2016,02,02,14,00,62.00
2016,02,02,14,01,62.40
2016,02,02,14,02,69.40
2016,02,02,14,03,77.30
2016,02,02,14,04,83.10
2016,02,02,14,05,84.30
2016,02,02,14,06,91.30
2016,02,02,14,07,98.90
2016,02,02,14,08,116.10
2016,02,02,14,09,117.90
2016,02,02,14,10,115.80
2016,02,02,14,11,111.00
2016,02,02,14,12,107.00
2016,02,02,14,13,107.10
2016,02,02,14,14,109.20
2016,02,02,14,15,114.40
2016,02,02,14,16,123.30
2016,02,02,14,17,130.20
2016,02,02,14,18,134.10
2016,02,02,14,19,135.30
2016,02,02,14,20,141.10
2016,02,02,14,21,144.00
2016,02,02,14,22,143.90
2016,02,02,14,23,141.60
2016,02,02,14,24,134.50
2016,02,02,14,25,124.40
2016,02,02,14,26,113.60
2016,02,02,14,27,104.70
2016,02,02,14,28,97.60
2016,02,02,14,29,89.70
2016,02,02,14,30,82.40
2016,02,02,14,31,71.80
2016,02,02,14,32,66.80
2016,02,02,14,33,62.00
2016,02,02,14,34,61.50
2016,02,02,14,35,50.70
2016,02,02,14,36,43.80
2016,02,02,14,37,38.90
2016,02,02,14,38,37.00
2016,02,02,14,39,36.90
2016,02,02,14,40,35.00
2016,02,02,14,41,35.00
2016,02,02,14,42,35.00
2016,02,02,14,43,35.20
2016,02,02,14,44,39.00
2016,02,02,14,45,40.00
2016,02,02,14,46,40.00
2016,02,02,14,47,41.90
2016,02,02,14,48,40.00
2016,02,02,14,49,38.80
2016,02,02,14,50,34.90
2016,02,02,14,51,32.80
2016,02,02,14,52,30.00
2016,02,02,14,53,30.00
2016,02,02,14,54,30.00
2016,02,02,14,55,30.00
2016,02,02,14,56,30.10
2016,02,02,14,57,32.00
2016,02,02,14,58,32.00
2016,02,02,14,59,33.10
2016,02,02,15,00,35.10
2016,02,02,15,01,37.20
2016,02,02,15,02,40.20
2016,02,02,15,03,44.00
2016,02,02,15,04,46.00
2016,02,02,15,05,43.90
2016,02,02,15,06,41.90
2016,02,02,15,07,40.00
2016,02,02,15,08,38.90
2016,02,02,15,09,37.00
2016,02,02,15,10,37.00
2016,02,02,15,11,37.10
2016,02,02,15,12,39.00
2016,02,02,15,13,40.10
2016,02,02,15,14,42.00
2016,02,02,15,15,44.10
2016,02,02,15,16,47.20
2016,02,02,15,17,51.10
2016,02,02,15,18,53.00
2016,02,02,15,19,54.10
2016,02,02,15,20,55.90
2016,02,02,15,21,54.00
2016,02,02,15,22,53.00
2016,02,02,15,23,52.90
2016,02,02,15,24,51.00
2016,02,02,15,25,51.00
2016,02,02,15,26,51.00
2016,02,02,15,27,51.00
2016,02,02,15,28,53.00
2016,02,02,15,29,53.00
2016,02,02,15,30,54.00
2016,02,02,15,31,54.20
2016,02,02,15,32,58.00
2016,02,02,15,33,62.10
2016,02,02,15,34,65.10
2016,02,02,15,35,67.00
2016,02,02,15,36,69.00
2016,02,02,15,37,69.00
2016,02,02,15,38,69.00
2016,02,02,15,39,68.80
2016,02,02,15,40,65.00
2016,02,02,15,41,61.80
2016,02,02,15,42,57.80
2016,02,02,15,43,53.70
2016,02,02,15,44,48.90
2016,02,02,15,45,47.00
2016,02,02,15,46,45.90
2016,02,02,15,47,43.90
2016,02,02,15,48,41.80
2016,02,02,15,49,38.90
2016,02,02,15,50,36.90
2016,02,02,15,51,34.90
2016,02,02,15,52,33.00
2016,02,02,15,53,31.80
2016,02,02,15,54,28.00
2016,02,02,15,55,27.90
2016,02,02,15,56,25.00
2016,02,02,15,57,25.00
2016,02,02,15,58,23.10
2016,02,02,15,59,25.00
2016,02,02,16,00,26.10
2016,02,02,16,01,28.10
2016,02,02,16,02,30.10
2016,02,02,16,03,33.10
2016,02,02,16,04,35.10
2016,02,02,16,05,37.00
2016,02,02,16,06,37.10
2016,02,02,16,07,39.00
2016,02,02,16,08,39.00
2016,02,02,16,09,39.00
2016,02,02,16,10,39.00
2016,02,02,16,11,39.00
2016,02,02,16,12,36.90
2016,02,02,16,13,34.90
2016,02,02,16,14,32.80
2016,02,02,16,15,29.90
2016,02,02,16,16,27.90
2016,02,02,16,17,26.00
2016,02,02,16,18,26.00
2016,02,02,16,19,26.00
2016,02,02,16,20,26.10
2016,02,02,16,21,27.90
2016,02,02,16,22,26.00
2016,02,02,16,23,26.00
2016,02,02,16,24,26.00
2016,02,02,16,25,24.90
2016,02,02,16,26,23.00
2016,02,02,16,27,23.00
2016,02,02,16,28,23.00
2016,02,02,16,29,23.00
2016,02,02,16,30,23.10
2016,02,02,16,31,25.00
2016,02,02,16,32,26.00
2016,02,02,16,33,28.00
2016,02,02,16,34,28.00
2016,02,02,16,35,26.00
2016,02,02,16,36,24.90
2016,02,02,16,37,23.00
2016,02,02,16,38,19.00
2016,02,02,16,39,19.00
2016,02,02,16,40,18.00
2016,02,02,16,41,18.00
2016,02,02,16,42,17.90
2016,02,02,16,43,16.00
2016,02,02,16,44,14.00
2016,02,02,16,45,12.00
2016,02,02,16,46,12.00
2016,02,02,16,47,14.00
2016,02,02,16,48,13.90
2016,02,02,16,49,12.00
2016,02,02,16,50,12.00
2016,02,02,16,51,12.00
2016,02,02,16,52,11.00
2016,02,02,16,53,8.90
2016,02,02,16,54,7.00
2016,02,02,16,55,7.00
2016,02,02,16,56,7.00
2016,02,02,16,57,5.00
2016,02,02,16,58,5.00
2016,02,02,16,59,5.00
2016,02,02,17,00,5.00
2016,02,02,17,01,5.00
2016,02,02,17,02,5.00
2016,02,02,17,03,5.00
2016,02,02,17,04,0.00
2016,02,02,17,05,0.00
2016,02,02,17,06,0.00
2016,02,02,17,07,0.00
2016,02,02,17,08,0.00
2016,02,02,17,09,0.00
2016,02,02,17,10,0.00
2016,02,02,17,11,0.00
2016,02,02,17,12,0.00
2016,02,02,17,13,0.00
2016,02,02,17,14,0.00
2016,02,02,17,15,0.00
2016,02,02,17,16,0.00
2016,02,02,17,17,0.00
2016,02,02,17,18,0.00
2016,02,02,17,19,0.00
2016,02,02,17,20,0.00
2016,02,02,17,21,0.00
2016,02,02,17,22,0.00
2016,02,02,17,23,0.00
2016,02,02,17,24,0.00
2016,02,02,17,25,0.00
2016,02,02,17,26,0.00
2016,02,02,17,27,0.00
2016,02,02,17,28,0.00
2016,02,02,17,29,0.00
2016,02,02,17,30,0.00
2016,02,02,17,31,0.00
2016,02,02,17,32,0.00
2016,02,02,17,33,0.00
2016,02,02,17,34,0.00
2016,02,02,17,35,0.00
2016,02,02,17,36,0.00
2016,02,02,17,37,0.00
2016,02,02,17,38,0.00
2016,02,02,17,39,0.00
2016,02,02,17,40,0.00
2016,02,02,17,41,0.00